LEGION 4

Last updated on Thu Mar 05 2026 00:02:40 GMT+0000 (Coordinated Universal Time)

1 60453U 24146B 26063.60225789 .00007461 00000+0 39320-3 0 9998 2 60453 45.0040 323.0512 0009474 72.2937 287.8975 15.16138613 85007
UTC large
Height (km)
Speed (km/s)
/
Latitude / Longitude
Inclination (degrees)
Orbital Period (minutes)
Azimuth
Elevation
Range (km)
Doppler Factor

Next 0 passes for location: London (51.5072 / 0.1276)

Sorry there are no passes over London.